"Date","Average Accumulated Water Year PPT (in)","Average SWE (in)"
10/01/1981,0.000,0.000
10/02/1981,0.178,0.000
10/03/1981,0.217,0.000
10/04/1981,0.231,0.000
10/05/1981,0.231,0.000
10/06/1981,0.233,0.000
10/07/1981,0.540,0.000
10/08/1981,0.777,0.000
10/09/1981,0.965,0.000
10/10/1981,1.062,0.000
10/11/1981,1.235,0.000
10/12/1981,1.273,0.000
10/13/1981,1.273,0.000
10/14/1981,1.277,0.000
10/15/1981,1.277,0.000
10/16/1981,1.279,0.000
10/17/1981,1.284,0.000
10/18/1981,1.284,0.000
10/19/1981,1.284,0.000
10/20/1981,1.284,0.000
10/21/1981,1.284,0.000
10/22/1981,1.284,0.000
10/23/1981,1.287,0.000
10/24/1981,1.287,0.000
10/25/1981,1.297,0.000
10/26/1981,1.317,0.000
10/27/1981,1.467,0.000
10/28/1981,1.617,0.000
10/29/1981,1.824,0.000
10/30/1981,1.909,0.001
10/31/1981,1.942,0.001
11/01/1981,1.942,0.000
11/02/1981,1.942,0.000
11/03/1981,1.942,0.000
11/04/1981,1.942,0.000
11/05/1981,1.942,0.000
11/06/1981,1.951,0.000
11/07/1981,1.951,0.000
11/08/1981,1.951,0.000
11/09/1981,1.958,0.000
11/10/1981,1.961,0.000
11/11/1981,1.964,0.000
11/12/1981,2.092,0.000
11/13/1981,2.336,0.001
11/14/1981,2.488,0.000
11/15/1981,2.509,0.000
11/16/1981,2.585,0.000
11/17/1981,3.214,0.004
11/18/1981,3.486,0.010
11/19/1981,3.533,0.017
11/20/1981,3.539,0.016
11/21/1981,3.610,0.015
11/22/1981,3.806,0.023
11/23/1981,3.950,0.030
11/24/1981,3.987,0.034
11/25/1981,4.010,0.049
11/26/1981,4.010,0.049
11/27/1981,4.017,0.053
11/28/1981,4.026,0.058
11/29/1981,4.029,0.060
11/30/1981,4.096,0.100
12/01/1981,4.205,0.102
12/02/1981,4.371,0.095
12/03/1981,4.478,0.102
12/04/1981,4.503,0.100
12/05/1981,4.540,0.095
12/06/1981,5.380,0.099
12/07/1981,5.571,0.099
12/08/1981,5.585,0.096
12/09/1981,5.591,0.093
12/10/1981,5.738,0.089
12/11/1981,5.747,0.088
12/12/1981,5.747,0.088
12/13/1981,5.782,0.109
12/14/1981,5.910,0.137
12/15/1981,6.217,0.149
12/16/1981,6.495,0.209
12/17/1981,6.498,0.209
12/18/1981,6.507,0.220
12/19/1981,6.723,0.241
12/20/1981,7.018,0.237
12/21/1981,7.101,0.266
12/22/1981,7.133,0.282
12/23/1981,7.135,0.283
12/24/1981,7.162,0.306
12/25/1981,7.341,0.386
12/26/1981,7.412,0.414
12/27/1981,7.583,0.588
12/28/1981,7.778,0.764
12/29/1981,7.886,0.871
12/30/1981,7.900,0.880
12/31/1981,7.936,0.900
01/01/1982,7.995,0.939
01/02/1982,8.038,0.971
01/03/1982,8.224,1.095
01/04/1982,8.572,1.423
01/05/1982,8.772,1.820
01/06/1982,8.782,1.839
01/07/1982,8.782,1.839
01/08/1982,8.811,1.854
01/09/1982,8.811,1.854
01/10/1982,8.822,1.860
01/11/1982,8.846,1.884
01/12/1982,8.976,2.082
01/13/1982,8.991,2.088
01/14/1982,8.991,1.928
01/15/1982,9.006,1.700
01/16/1982,9.384,1.798
01/17/1982,9.914,1.759
01/18/1982,10.023,1.690
01/19/1982,10.023,1.682
01/20/1982,10.034,1.689
01/21/1982,10.117,1.745
01/22/1982,10.141,1.785
01/23/1982,10.810,2.355
01/24/1982,10.974,1.987
01/25/1982,11.048,1.900
01/26/1982,11.093,1.784
01/27/1982,11.143,1.697
01/28/1982,11.173,1.658
01/29/1982,11.195,1.649
01/30/1982,11.205,1.626
01/31/1982,11.254,1.600
02/01/1982,11.287,1.577
02/02/1982,11.345,1.594
02/03/1982,11.394,1.659
02/04/1982,11.398,1.669
02/05/1982,11.398,1.669
02/06/1982,11.402,1.680
02/07/1982,11.407,1.689
02/08/1982,11.407,1.689
02/09/1982,11.407,1.689
02/10/1982,11.408,1.690
02/11/1982,11.408,1.690
02/12/1982,11.408,1.687
02/13/1982,11.484,1.671
02/14/1982,11.799,1.597
02/15/1982,12.074,1.449
02/16/1982,12.282,1.316
02/17/1982,12.492,1.204
02/18/1982,12.609,1.158
02/19/1982,13.132,1.139
02/20/1982,13.306,1.060
02/21/1982,13.634,1.039
02/22/1982,13.768,1.069
02/23/1982,13.840,1.102
02/24/1982,13.846,1.102
02/25/1982,13.846,1.098
02/26/1982,13.847,1.071
02/27/1982,13.874,1.058
02/28/1982,13.876,1.042
03/01/1982,13.994,1.018
03/02/1982,14.164,1.006
03/03/1982,14.289,1.002
03/04/1982,14.594,1.022
03/05/1982,14.673,1.028
03/06/1982,14.673,1.026
03/07/1982,14.673,1.024
03/08/1982,14.673,1.016
03/09/1982,14.856,1.009
03/10/1982,14.881,0.979
03/11/1982,14.964,0.952
03/12/1982,15.075,0.966
03/13/1982,15.082,0.962
03/14/1982,15.083,0.948
03/15/1982,15.405,0.961
03/16/1982,15.475,0.992
03/17/1982,15.475,0.991
03/18/1982,15.475,0.986
03/19/1982,15.584,1.025
03/20/1982,15.624,1.016
03/21/1982,15.630,1.009
03/22/1982,15.630,1.005
03/23/1982,15.632,0.998
03/24/1982,15.635,0.984
03/25/1982,15.638,0.972
03/26/1982,15.658,0.942
03/27/1982,15.737,0.916
03/28/1982,15.769,0.906
03/29/1982,15.817,0.904
03/30/1982,15.877,0.916
03/31/1982,15.955,0.937
04/01/1982,16.048,0.948
04/02/1982,16.108,0.963
04/03/1982,16.234,0.967
04/04/1982,16.309,0.976
04/05/1982,16.372,0.975
04/06/1982,16.474,0.986
04/07/1982,16.544,0.996
04/08/1982,16.626,1.001
04/09/1982,16.630,0.998
04/10/1982,16.637,0.994
04/11/1982,17.163,0.969
04/12/1982,17.614,0.915
04/13/1982,17.815,0.893
04/14/1982,18.106,0.878
04/15/1982,18.174,0.881
04/16/1982,18.236,0.922
04/17/1982,18.239,0.910
04/18/1982,18.239,0.903
04/19/1982,18.246,0.905
04/20/1982,18.255,0.913
04/21/1982,18.255,0.903
04/22/1982,18.255,0.868
04/23/1982,18.255,0.808
04/24/1982,18.258,0.767
04/25/1982,18.258,0.757
04/26/1982,18.258,0.744
04/27/1982,18.258,0.727
04/28/1982,18.354,0.702
04/29/1982,18.452,0.694
04/30/1982,18.452,0.684
05/01/1982,18.454,0.654
05/02/1982,18.457,0.620
05/03/1982,18.489,0.596
05/04/1982,18.697,0.596
05/05/1982,18.698,0.594
05/06/1982,18.703,0.582
05/07/1982,18.721,0.546
05/08/1982,18.725,0.526
05/09/1982,18.741,0.514
05/10/1982,18.761,0.496
05/11/1982,18.772,0.484
05/12/1982,18.774,0.462
05/13/1982,18.774,0.435
05/14/1982,18.782,0.400
05/15/1982,18.888,0.360
05/16/1982,18.904,0.330
05/17/1982,18.913,0.294
05/18/1982,19.088,0.282
05/19/1982,19.089,0.273
05/20/1982,19.091,0.258
05/21/1982,19.097,0.232
05/22/1982,19.104,0.201
05/23/1982,19.131,0.180
05/24/1982,19.136,0.165
05/25/1982,19.136,0.140
05/26/1982,19.136,0.119
05/27/1982,19.142,0.113
05/28/1982,19.300,0.109
05/29/1982,19.352,0.104
05/30/1982,19.359,0.098
05/31/1982,19.365,0.087
06/01/1982,19.408,0.073
06/02/1982,19.447,0.063
06/03/1982,19.480,0.054
06/04/1982,19.504,0.048
06/05/1982,19.520,0.044
06/06/1982,19.539,0.039
06/07/1982,19.542,0.035
06/08/1982,19.542,0.032
06/09/1982,19.551,0.026
06/10/1982,19.563,0.019
06/11/1982,19.568,0.013
06/12/1982,19.568,0.008
06/13/1982,19.607,0.005
06/14/1982,19.639,0.003
06/15/1982,19.639,0.002
06/16/1982,19.648,0.000
06/17/1982,19.648,0.000
06/18/1982,19.648,0.000
06/19/1982,19.656,0.000
06/20/1982,19.656,0.000
06/21/1982,19.656,0.000
06/22/1982,19.694,0.000
06/23/1982,19.696,0.000
06/24/1982,19.698,0.000
06/25/1982,19.739,0.000
06/26/1982,19.742,0.000
06/27/1982,20.009,0.000
06/28/1982,20.153,0.000
06/29/1982,20.234,0.000
06/30/1982,20.324,0.000
07/01/1982,20.561,0.000
07/02/1982,20.854,0.000
07/03/1982,21.095,0.000
07/04/1982,21.117,0.000
07/05/1982,21.129,0.000
07/06/1982,21.137,0.000
07/07/1982,21.280,0.000
07/08/1982,21.388,0.000
07/09/1982,21.392,0.000
07/10/1982,21.405,0.000
07/11/1982,21.413,0.000
07/12/1982,21.413,0.000
07/13/1982,21.429,0.000
07/14/1982,21.516,0.000
07/15/1982,21.529,0.000
07/16/1982,21.678,0.000
07/17/1982,21.695,0.000
07/18/1982,21.706,0.000
07/19/1982,21.711,0.000
07/20/1982,21.716,0.000
07/21/1982,21.716,0.000
07/22/1982,21.716,0.000
07/23/1982,21.716,0.000
07/24/1982,21.721,0.000
07/25/1982,21.729,0.000
07/26/1982,21.729,0.000
07/27/1982,21.729,0.000
07/28/1982,21.729,0.000
07/29/1982,21.729,0.000
07/30/1982,21.729,0.000
07/31/1982,21.736,0.000
08/01/1982,21.737,0.000
08/02/1982,21.743,0.000
08/03/1982,21.820,0.000
08/04/1982,21.851,0.000
08/05/1982,21.851,0.000
08/06/1982,21.851,0.000
08/07/1982,21.851,0.000
08/08/1982,21.851,0.000
08/09/1982,21.852,0.000
08/10/1982,21.967,0.000
08/11/1982,21.986,0.000
08/12/1982,21.993,0.000
08/13/1982,21.994,0.000
08/14/1982,22.031,0.000
08/15/1982,22.090,0.000
08/16/1982,22.090,0.000
08/17/1982,22.090,0.000
08/18/1982,22.094,0.000
08/19/1982,22.103,0.000
08/20/1982,22.115,0.000
08/21/1982,22.128,0.000
08/22/1982,22.128,0.000
08/23/1982,22.128,0.000
08/24/1982,22.128,0.000
08/25/1982,22.137,0.000
08/26/1982,22.138,0.000
08/27/1982,22.138,0.000
08/28/1982,22.138,0.000
08/29/1982,22.138,0.000
08/30/1982,22.201,0.000
08/31/1982,22.203,0.000
09/01/1982,22.203,0.000
09/02/1982,22.203,0.000
09/03/1982,22.205,0.000
09/04/1982,22.264,0.000
09/05/1982,22.270,0.000
09/06/1982,22.270,0.000
09/07/1982,22.270,0.000
09/08/1982,22.270,0.000
09/09/1982,22.272,0.000
09/10/1982,22.562,0.000
09/11/1982,22.573,0.000
09/12/1982,22.775,0.000
09/13/1982,22.976,0.000
09/14/1982,22.980,0.000
09/15/1982,22.984,0.000
09/16/1982,22.989,0.000
09/17/1982,22.993,0.000
09/18/1982,22.998,0.000
09/19/1982,23.005,0.000
09/20/1982,23.048,0.000
09/21/1982,23.075,0.000
09/22/1982,23.075,0.000
09/23/1982,23.075,0.000
09/24/1982,23.091,0.000
09/25/1982,23.183,0.000
09/26/1982,23.587,0.000
09/27/1982,23.618,0.000
09/28/1982,23.643,0.000
09/29/1982,23.751,0.000
09/30/1982,23.751,0.000
10/01/1982,0.000,0.000
10/02/1982,0.031,0.000
10/03/1982,0.189,0.000
10/04/1982,0.216,0.000
10/05/1982,0.255,0.000
10/06/1982,0.259,0.000
10/07/1982,0.331,0.000
10/08/1982,0.357,0.000
10/09/1982,0.368,0.000
10/10/1982,0.368,0.000
10/11/1982,0.371,0.000
10/12/1982,0.374,0.000
10/13/1982,0.374,0.000
10/14/1982,0.380,0.000
10/15/1982,0.380,0.000
10/16/1982,0.380,0.000
10/17/1982,0.485,0.000
10/18/1982,0.569,0.000
10/19/1982,0.595,0.008
10/20/1982,0.599,0.007
10/21/1982,0.607,0.006
10/22/1982,0.748,0.001
10/23/1982,1.045,0.000
10/24/1982,1.169,0.000
10/25/1982,1.180,0.000
10/26/1982,1.426,0.000
10/27/1982,1.489,0.000
10/28/1982,1.492,0.000
10/29/1982,2.242,0.005
10/30/1982,2.337,0.009
10/31/1982,2.368,0.009
11/01/1982,2.368,0.008
11/02/1982,2.368,0.008
11/03/1982,2.376,0.010
11/04/1982,2.377,0.009
11/05/1982,2.387,0.008
11/06/1982,2.742,0.022
11/07/1982,2.796,0.025
11/08/1982,2.796,0.025
11/09/1982,2.813,0.027
11/10/1982,2.813,0.027
11/11/1982,2.813,0.027
11/12/1982,2.818,0.031
11/13/1982,2.901,0.058
11/14/1982,2.906,0.063
11/15/1982,2.909,0.063
11/16/1982,2.921,0.072
11/17/1982,3.045,0.052
11/18/1982,3.317,0.043
11/19/1982,3.495,0.041
11/20/1982,3.673,0.064
11/21/1982,3.767,0.093
11/22/1982,3.799,0.109
11/23/1982,3.799,0.109
11/24/1982,3.799,0.109
11/25/1982,3.800,0.110
11/26/1982,3.802,0.111
11/27/1982,3.802,0.111
11/28/1982,3.967,0.136
11/29/1982,4.152,0.131
11/30/1982,4.270,0.139
12/01/1982,4.286,0.139
12/02/1982,4.287,0.139
12/03/1982,4.702,0.151
12/04/1982,4.861,0.136
12/05/1982,4.910,0.135
12/06/1982,5.223,0.288
12/07/1982,5.355,0.339
12/08/1982,5.355,0.339
12/09/1982,5.359,0.343
12/10/1982,5.361,0.346
12/11/1982,5.369,0.356
12/12/1982,5.374,0.360
12/13/1982,5.734,0.655
12/14/1982,5.810,0.669
12/15/1982,6.011,0.631
12/16/1982,6.159,0.544
12/17/1982,6.278,0.404
12/18/1982,6.290,0.365
12/19/1982,6.290,0.339
12/20/1982,6.360,0.322
12/21/1982,6.620,0.319
12/22/1982,6.805,0.306
12/23/1982,6.824,0.309
12/24/1982,6.826,0.309
12/25/1982,6.826,0.309
12/26/1982,6.848,0.318
12/27/1982,6.869,0.324
12/28/1982,6.871,0.325
12/29/1982,6.871,0.325
12/30/1982,6.871,0.326
12/31/1982,6.871,0.326
01/01/1983,6.871,0.326
01/02/1983,6.871,0.326
01/03/1983,6.973,0.452
01/04/1983,7.041,0.449
01/05/1983,7.412,0.405
01/06/1983,7.779,0.360
01/07/1983,8.174,0.357
01/08/1983,8.258,0.328
01/09/1983,8.258,0.321
01/10/1983,8.258,0.313
01/11/1983,8.258,0.304
01/12/1983,8.258,0.297
01/13/1983,8.258,0.290
01/14/1983,8.258,0.287
01/15/1983,8.258,0.287
01/16/1983,8.258,0.287
01/17/1983,8.260,0.287
01/18/1983,8.264,0.290
01/19/1983,8.296,0.290
01/20/1983,8.490,0.309
01/21/1983,8.557,0.313
01/22/1983,8.557,0.312
01/23/1983,8.580,0.306
01/24/1983,8.655,0.291
01/25/1983,8.750,0.289
01/26/1983,8.853,0.287
01/27/1983,9.004,0.282
01/28/1983,9.006,0.278
01/29/1983,9.006,0.277
01/30/1983,9.074,0.280
01/31/1983,9.081,0.279
02/01/1983,9.081,0.279
02/02/1983,9.081,0.279
02/03/1983,9.081,0.279
02/04/1983,9.081,0.279
02/05/1983,9.081,0.279
02/06/1983,9.081,0.279
02/07/1983,9.221,0.311
02/08/1983,9.284,0.332
02/09/1983,9.484,0.386
02/10/1983,9.611,0.370
02/11/1983,9.729,0.355
02/12/1983,9.747,0.330
02/13/1983,9.768,0.314
02/14/1983,9.843,0.312
02/15/1983,9.873,0.315
02/16/1983,10.153,0.329
02/17/1983,10.398,0.335
02/18/1983,10.776,0.334
02/19/1983,11.221,0.358
02/20/1983,11.290,0.357
02/21/1983,11.351,0.352
02/22/1983,11.449,0.339
02/23/1983,11.462,0.326
02/24/1983,11.471,0.309
02/25/1983,11.478,0.296
02/26/1983,11.566,0.289
02/27/1983,11.589,0.286
02/28/1983,11.657,0.285
03/01/1983,11.732,0.282
03/02/1983,11.873,0.275
03/03/1983,11.930,0.266
03/04/1983,12.087,0.257
03/05/1983,12.384,0.254
03/06/1983,12.545,0.251
03/07/1983,12.621,0.248
03/08/1983,12.713,0.246
03/09/1983,12.760,0.243
03/10/1983,12.819,0.235
03/11/1983,12.982,0.227
03/12/1983,13.260,0.232
03/13/1983,13.441,0.233
03/14/1983,13.579,0.237
03/15/1983,13.589,0.237
03/16/1983,13.589,0.237
03/17/1983,13.589,0.235
03/18/1983,13.589,0.234
03/19/1983,13.589,0.234
03/20/1983,13.589,0.234
03/21/1983,13.590,0.232
03/22/1983,13.592,0.229
03/23/1983,13.741,0.224
03/24/1983,13.765,0.223
03/25/1983,13.765,0.222
03/26/1983,13.835,0.227
03/27/1983,13.985,0.226
03/28/1983,14.200,0.263
03/29/1983,14.364,0.263
03/30/1983,14.830,0.272
03/31/1983,14.960,0.271
04/01/1983,14.994,0.275
04/02/1983,15.125,0.276
04/03/1983,15.209,0.290
04/04/1983,15.223,0.294
04/05/1983,15.223,0.293
04/06/1983,15.223,0.291
04/07/1983,15.223,0.286
04/08/1983,15.223,0.284
04/09/1983,15.226,0.284
04/10/1983,15.279,0.288
04/11/1983,15.314,0.291
04/12/1983,15.322,0.292
04/13/1983,15.322,0.293
04/14/1983,15.322,0.290
04/15/1983,15.322,0.287
04/16/1983,15.322,0.278
04/17/1983,15.322,0.265
04/18/1983,15.322,0.244
04/19/1983,15.322,0.227
04/20/1983,15.389,0.205
04/21/1983,15.405,0.184
04/22/1983,15.472,0.176
04/23/1983,15.532,0.164
04/24/1983,15.974,0.156
04/25/1983,16.046,0.154
04/26/1983,16.064,0.153
04/27/1983,16.066,0.152
04/28/1983,16.066,0.148
04/29/1983,16.068,0.141
04/30/1983,16.068,0.131
05/01/1983,16.093,0.122
05/02/1983,16.115,0.117
05/03/1983,16.115,0.114
05/04/1983,16.115,0.109
05/05/1983,16.128,0.099
05/06/1983,16.410,0.101
05/07/1983,16.559,0.095
05/08/1983,16.775,0.092
05/09/1983,16.931,0.110
05/10/1983,16.970,0.107
05/11/1983,16.971,0.100
05/12/1983,16.971,0.095
05/13/1983,16.971,0.091
05/14/1983,16.975,0.085
05/15/1983,17.115,0.080
05/16/1983,17.144,0.082
05/17/1983,17.146,0.079
05/18/1983,17.168,0.072
05/19/1983,17.201,0.067
05/20/1983,17.202,0.060
05/21/1983,17.202,0.049
05/22/1983,17.202,0.041
05/23/1983,17.202,0.030
05/24/1983,17.202,0.018
05/25/1983,17.202,0.009
05/26/1983,17.202,0.004
05/27/1983,17.202,0.002
05/28/1983,17.202,0.000
05/29/1983,17.202,0.000
05/30/1983,17.202,0.000
05/31/1983,17.202,0.000
06/01/1983,17.202,0.000
06/02/1983,17.205,0.000
06/03/1983,17.211,0.000
06/04/1983,17.211,0.000
06/05/1983,17.211,0.000
06/06/1983,17.211,0.000
06/07/1983,17.211,0.000
06/08/1983,17.215,0.000
06/09/1983,17.215,0.000
06/10/1983,17.257,0.000
06/11/1983,17.632,0.000
06/12/1983,17.686,0.000
06/13/1983,17.698,0.000
06/14/1983,17.701,0.000
06/15/1983,17.789,0.000
06/16/1983,17.825,0.000
06/17/1983,17.856,0.000
06/18/1983,17.903,0.000
06/19/1983,17.932,0.000
06/20/1983,17.954,0.000
06/21/1983,17.954,0.000
06/22/1983,17.954,0.000
06/23/1983,18.154,0.000
06/24/1983,18.420,0.000
06/25/1983,18.425,0.000
06/26/1983,18.430,0.000
06/27/1983,18.580,0.000
06/28/1983,18.698,0.000
06/29/1983,18.854,0.000
06/30/1983,18.999,0.000
07/01/1983,19.176,0.000
07/02/1983,19.459,0.000
07/03/1983,19.536,0.000
07/04/1983,19.536,0.000
07/05/1983,19.536,0.000
07/06/1983,19.562,0.000
07/07/1983,19.562,0.000
07/08/1983,19.609,0.000
07/09/1983,19.642,0.000
07/10/1983,19.646,0.000
07/11/1983,19.646,0.000
07/12/1983,19.646,0.000
07/13/1983,19.647,0.000
07/14/1983,20.006,0.000
07/15/1983,20.041,0.000
07/16/1983,20.041,0.000
07/17/1983,20.041,0.000
07/18/1983,20.042,0.000
07/19/1983,20.099,0.000
07/20/1983,20.216,0.000
07/21/1983,20.475,0.000
07/22/1983,20.477,0.000
07/23/1983,20.480,0.000
07/24/1983,20.501,0.000
07/25/1983,20.684,0.000
07/26/1983,20.689,0.000
07/27/1983,20.689,0.000
07/28/1983,20.689,0.000
07/29/1983,20.689,0.000
07/30/1983,20.689,0.000
07/31/1983,20.689,0.000
08/01/1983,20.693,0.000
08/02/1983,20.704,0.000
08/03/1983,20.704,0.000
08/04/1983,20.704,0.000
08/05/1983,20.704,0.000
08/06/1983,20.704,0.000
08/07/1983,20.704,0.000
08/08/1983,20.704,0.000
08/09/1983,20.704,0.000
08/10/1983,20.724,0.000
08/11/1983,20.899,0.000
08/12/1983,20.914,0.000
08/13/1983,20.914,0.000
08/14/1983,20.921,0.000
08/15/1983,20.921,0.000
08/16/1983,20.923,0.000
08/17/1983,20.923,0.000
08/18/1983,20.923,0.000
08/19/1983,20.923,0.000
08/20/1983,20.923,0.000
08/21/1983,20.923,0.000
08/22/1983,20.977,0.000
08/23/1983,21.069,0.000
08/24/1983,21.255,0.000
08/25/1983,21.381,0.000
08/26/1983,21.450,0.000
08/27/1983,21.450,0.000
08/28/1983,21.456,0.000
08/29/1983,21.456,0.000
08/30/1983,21.456,0.000
08/31/1983,21.456,0.000
09/01/1983,21.540,0.000
09/02/1983,21.555,0.000
09/03/1983,21.555,0.000
09/04/1983,21.555,0.000
09/05/1983,21.555,0.000
09/06/1983,21.555,0.000
09/07/1983,21.555,0.000
09/08/1983,21.556,0.000
09/09/1983,21.556,0.000
09/10/1983,21.564,0.000
09/11/1983,22.029,0.000
09/12/1983,22.070,0.000
09/13/1983,22.070,0.000
09/14/1983,22.070,0.000
09/15/1983,22.070,0.000
09/16/1983,22.070,0.000
09/17/1983,22.070,0.000
09/18/1983,22.080,0.000
09/19/1983,22.444,0.001
09/20/1983,22.491,0.000
09/21/1983,22.491,0.000
09/22/1983,22.491,0.000
09/23/1983,22.491,0.000
09/24/1983,22.491,0.000
09/25/1983,22.491,0.000
09/26/1983,22.491,0.000
09/27/1983,22.491,0.000
09/28/1983,22.491,0.000
09/29/1983,22.491,0.000
09/30/1983,22.491,0.000
10/01/1983,0.000,0.000
10/02/1983,0.000,0.000
10/03/1983,0.000,0.000
10/04/1983,0.000,0.000
10/05/1983,0.000,0.000
10/06/1983,0.000,0.000
10/07/1983,0.000,0.000
10/08/1983,0.015,0.000
10/09/1983,0.153,0.000
10/10/1983,0.255,0.000
10/11/1983,0.257,0.000
10/12/1983,0.257,0.000
10/13/1983,0.281,0.000
10/14/1983,0.286,0.000
10/15/1983,0.286,0.000
10/16/1983,0.286,0.000
10/17/1983,0.288,0.000
10/18/1983,0.386,0.000
10/19/1983,0.400,0.000
10/20/1983,0.402,0.000
10/21/1983,0.402,0.000
10/22/1983,0.563,0.000
10/23/1983,0.922,0.000
10/24/1983,0.967,0.000
10/25/1983,0.967,0.000
10/26/1983,0.967,0.000
10/27/1983,0.967,0.000
10/28/1983,0.967,0.000
10/29/1983,0.967,0.000
10/30/1983,0.969,0.000
10/31/1983,1.129,0.000
11/01/1983,1.309,0.000
11/02/1983,1.426,0.000
11/03/1983,1.549,0.000
11/04/1983,1.974,0.000
11/05/1983,2.051,0.000
11/06/1983,2.231,0.000
11/07/1983,2.569,0.002
11/08/1983,2.634,0.009
11/09/1983,2.642,0.008
11/10/1983,2.771,0.023
11/11/1983,3.131,0.024
11/12/1983,3.184,0.021
11/13/1983,3.414,0.024
11/14/1983,3.552,0.030
11/15/1983,3.736,0.041
11/16/1983,3.867,0.040
11/17/1983,4.058,0.042
11/18/1983,4.161,0.043
11/19/1983,4.232,0.059
11/20/1983,4.291,0.060
11/21/1983,4.365,0.070
11/22/1983,4.399,0.080
11/23/1983,4.467,0.087
11/24/1983,4.637,0.102
11/25/1983,4.689,0.103
11/26/1983,4.689,0.103
11/27/1983,4.734,0.124
11/28/1983,4.765,0.137
11/29/1983,4.834,0.164
11/30/1983,4.848,0.172
12/01/1983,4.848,0.172
12/02/1983,4.854,0.177
12/03/1983,4.933,0.264
12/04/1983,4.966,0.299
12/05/1983,5.029,0.366
12/06/1983,5.235,0.612
12/07/1983,5.384,0.754
12/08/1983,5.720,0.997
12/09/1983,5.852,0.814
12/10/1983,6.172,0.780
12/11/1983,6.388,0.737
12/12/1983,6.502,0.731
12/13/1983,6.623,0.725
12/14/1983,6.735,0.679
12/15/1983,6.899,0.655
12/16/1983,6.920,0.661
12/17/1983,6.920,0.661
12/18/1983,6.979,0.726
12/19/1983,7.069,0.881
12/20/1983,7.119,0.928
12/21/1983,7.160,0.975
12/22/1983,7.162,0.978
12/23/1983,7.177,1.011
12/24/1983,7.179,1.019
12/25/1983,7.203,1.036
12/26/1983,7.335,1.302
12/27/1983,7.385,1.332
12/28/1983,7.425,1.356
12/29/1983,7.495,1.402
12/30/1983,7.885,1.680
12/31/1983,8.024,1.651
01/01/1984,8.027,1.604
01/02/1984,8.027,1.599
01/03/1984,8.361,1.513
01/04/1984,8.620,1.328
01/05/1984,8.623,1.154
01/06/1984,8.624,1.061
01/07/1984,8.624,1.005
01/08/1984,8.642,0.964
01/09/1984,8.648,0.940
01/10/1984,8.648,0.905
01/11/1984,8.729,0.902
01/12/1984,8.740,0.890
01/13/1984,8.740,0.889
01/14/1984,8.740,0.891
01/15/1984,8.744,0.901
01/16/1984,8.748,0.911
01/17/1984,8.748,0.911
01/18/1984,8.752,0.918
01/19/1984,8.760,0.933
01/20/1984,8.760,0.933
01/21/1984,8.761,0.935
01/22/1984,8.887,1.006
01/23/1984,8.984,0.982
01/24/1984,9.229,0.966
01/25/1984,9.545,0.847
01/26/1984,9.563,0.779
01/27/1984,9.563,0.744
01/28/1984,9.563,0.711
01/29/1984,9.563,0.696
01/30/1984,9.563,0.686
01/31/1984,9.571,0.693
02/01/1984,9.571,0.692
02/02/1984,9.571,0.691
02/03/1984,9.571,0.689
02/04/1984,9.571,0.687
02/05/1984,9.571,0.686
02/06/1984,9.577,0.686
02/07/1984,9.578,0.687
02/08/1984,9.578,0.684
02/09/1984,9.585,0.683
02/10/1984,9.646,0.717
02/11/1984,9.656,0.731
02/12/1984,9.723,0.788
02/13/1984,10.135,0.854
02/14/1984,10.414,0.878
02/15/1984,10.470,0.885
02/16/1984,10.574,0.904
02/17/1984,10.634,0.920
02/18/1984,10.634,0.920
02/19/1984,10.634,0.920
02/20/1984,10.669,0.915
02/21/1984,10.744,0.914
02/22/1984,10.914,0.948
02/23/1984,11.010,0.962
02/24/1984,11.081,0.981
02/25/1984,11.263,1.046
02/26/1984,11.327,1.051
02/27/1984,11.335,1.051
02/28/1984,11.335,1.035
02/29/1984,11.335,1.024
03/01/1984,11.382,1.006
03/02/1984,11.495,0.993
03/03/1984,11.562,0.993
03/04/1984,11.562,0.993
03/05/1984,11.574,0.992
03/06/1984,11.574,0.978
03/07/1984,11.574,0.959
03/08/1984,11.591,0.932
03/09/1984,11.621,0.904
03/10/1984,11.658,0.875
03/11/1984,11.759,0.859
03/12/1984,11.784,0.851
03/13/1984,11.947,0.841
03/14/1984,12.259,0.868
03/15/1984,12.598,0.867
03/16/1984,12.686,0.865
03/17/1984,12.820,0.869
03/18/1984,12.859,0.871
03/19/1984,12.926,0.872
03/20/1984,13.231,0.856
03/21/1984,13.621,0.839
03/22/1984,13.763,0.858
03/23/1984,13.770,0.846
03/24/1984,13.803,0.846
03/25/1984,13.850,0.847
03/26/1984,14.198,0.886
03/27/1984,14.280,0.895
03/28/1984,14.321,0.897
03/29/1984,14.509,0.912
03/30/1984,14.533,0.912
03/31/1984,14.550,0.900
04/01/1984,14.554,0.884
04/02/1984,14.599,0.879
04/03/1984,14.599,0.875
04/04/1984,14.603,0.867
04/05/1984,14.711,0.857
04/06/1984,14.831,0.862
04/07/1984,14.862,0.863
04/08/1984,15.098,0.865
04/09/1984,15.213,0.886
04/10/1984,15.331,0.891
04/11/1984,15.425,0.916
04/12/1984,15.474,0.916
04/13/1984,15.532,0.915
04/14/1984,15.537,0.894
04/15/1984,15.537,0.844
04/16/1984,15.537,0.767
04/17/1984,15.611,0.740
04/18/1984,15.666,0.729
04/19/1984,15.871,0.713
04/20/1984,15.974,0.710
04/21/1984,15.977,0.701
04/22/1984,15.977,0.688
04/23/1984,15.977,0.665
04/24/1984,15.977,0.662
04/25/1984,15.986,0.666
04/26/1984,15.992,0.669
04/27/1984,15.994,0.668
04/28/1984,16.021,0.671
04/29/1984,16.082,0.672
04/30/1984,16.093,0.672
05/01/1984,16.217,0.673
05/02/1984,16.407,0.666
05/03/1984,16.520,0.657
05/04/1984,16.584,0.663
05/05/1984,16.627,0.664
05/06/1984,16.699,0.668
05/07/1984,16.716,0.663
05/08/1984,16.718,0.637
05/09/1984,16.768,0.600
05/10/1984,16.775,0.587
05/11/1984,16.800,0.572
05/12/1984,16.859,0.536
05/13/1984,16.870,0.501
05/14/1984,16.901,0.442
05/15/1984,16.920,0.438
05/16/1984,17.064,0.444
05/17/1984,17.067,0.432
05/18/1984,17.067,0.408
05/19/1984,17.073,0.379
05/20/1984,17.269,0.356
05/21/1984,17.289,0.346
05/22/1984,17.308,0.338
05/23/1984,17.704,0.323
05/24/1984,17.807,0.316
05/25/1984,17.819,0.311
05/26/1984,17.894,0.304
05/27/1984,17.931,0.287
05/28/1984,17.932,0.270
05/29/1984,17.934,0.228
05/30/1984,17.945,0.182
05/31/1984,17.951,0.169
06/01/1984,17.951,0.162
06/02/1984,17.951,0.151
06/03/1984,17.951,0.135
06/04/1984,18.092,0.122
06/05/1984,18.378,0.113
06/06/1984,18.672,0.104
06/07/1984,18.799,0.097
06/08/1984,19.000,0.091
06/09/1984,19.051,0.087
06/10/1984,19.106,0.082
06/11/1984,19.186,0.074
06/12/1984,19.243,0.065
06/13/1984,19.280,0.055
06/14/1984,19.281,0.045
06/15/1984,19.281,0.033
06/16/1984,19.281,0.023
06/17/1984,19.281,0.019
06/18/1984,19.281,0.015
06/19/1984,19.281,0.011
06/20/1984,19.309,0.009
06/21/1984,19.657,0.008
06/22/1984,19.782,0.007
06/23/1984,19.818,0.006
06/24/1984,19.818,0.004
06/25/1984,19.818,0.001
06/26/1984,19.818,0.000
06/27/1984,19.818,0.000
06/28/1984,19.818,0.000
06/29/1984,19.871,0.000
06/30/1984,19.951,0.000
07/01/1984,19.953,0.000
07/02/1984,19.953,0.000
07/03/1984,19.953,0.000
07/04/1984,19.953,0.000
07/05/1984,19.953,0.000
07/06/1984,19.953,0.000
07/07/1984,19.953,0.000
07/08/1984,19.953,0.000
07/09/1984,19.953,0.000